This demonstration page uses our WeatherBlox Daily Observations layout. Learn more.

Left ArrowRight Arrow

53.62937, 11.41316

Hourly Observations for May 26, 2021

Temp ( °F °C ) Dew Point ( °F °C ) Humidity (%) Winds ( mph kmh ) Pressure ( in mb ) Visibility ( mi km ) Precip ( " mm )
7:20 am 07:20 Partly Cloudy 48 9 46 8 94 94 S 10 17 29.77 1008 30 48 N/A
7:50 am 07:50 Partly Cloudy 50 10 46 8 88 88 S 9 15 29.77 1008 30 48 N/A
8:20 am 08:20 Partly Cloudy 50 10 45 7 82 82 SSW 10 17 29.74 1007 30 48 N/A
8:50 am 08:50 Partly Cloudy 52 11 45 7 77 77 S 12 19 29.74 1007 30 48 N/A
9:20 am 09:20 Partly Cloudy 52 11 45 7 77 77 S 14 22 29.74 1007 30 48 N/A
9:50 am 09:50 Mostly Cloudy 52 11 43 6 72 72 SSW 14 22 29.74 1007 30 48 N/A
10:20 am 10:20 Partly Cloudy 52 11 46 8 82 82 S 10 17 29.74 1007 30 48 N/A
10:50 am 10:50 Partly Cloudy 52 11 43 6 72 72 S 13 20 29.74 1007 30 48 N/A
11:20 am 11:20 Partly Cloudy with Light Rain 50 10 46 8 88 88 SSW 14 22 29.74 1007 30 48 N/A
11:50 am 11:50 Mostly Cloudy with Showers Nearby 50 10 48 9 94 94 S 10 17 29.74 1007 30 48 N/A
12:20 pm 12:20 Partly Cloudy with Light Rain 50 10 48 9 94 94 S 7 11 29.74 1007 30 48 N/A
12:50 pm 12:50 Mostly Cloudy with Showers Nearby 54 12 48 9 82 82 S 12 19 29.71 1006 30 48 N/A
1:20 pm 13:20 Partly Cloudy with Showers Nearby 55 13 48 9 77 77 S 13 20 29.71 1006 30 48 N/A
1:50 pm 13:50 Partly Cloudy with Showers Nearby 55 13 46 8 72 72 S 15 24 29.71 1006 30 48 N/A
2:20 pm 14:20 Partly Cloudy with Showers Nearby 54 12 46 8 77 77 SSW 10 17 29.71 1006 30 48 N/A
2:50 pm 14:50 Partly Cloudy with Showers Nearby 55 13 46 8 72 72 SSW 12 19 29.71 1006 30 48 N/A
3:20 pm 15:20 Partly Cloudy with Showers Nearby 57 14 48 9 72 72 S 16 26 29.71 1006 30 48 N/A
3:50 pm 15:50 Partly Cloudy with Showers Nearby 57 14 45 7 63 63 S 15 24 29.71 1006 30 48 N/A
4:20 pm 16:20 Windy with Rain Showers Likely 55 13 45 7 67 67 SSW 20 31 29.71 1006 30 48 N/A
4:50 pm 16:50 Partly Cloudy with Showers Nearby 52 11 46 8 82 82 SW 13 20 29.71 1006 30 48 N/A
5:20 pm 17:20 Partly Cloudy with Showers Nearby 55 13 48 9 77 77 SSW 9 15 29.71 1006 30 48 N/A
5:50 pm 17:50 Partly Cloudy with Light Showers 50 10 46 8 88 88 SW 12 19 29.71 1006 30 48 N/A
6:20 pm 18:20 Partly Cloudy with Showers Nearby 54 12 48 9 82 82 S 10 17 29.71 1006 30 48 N/A
6:50 pm 18:50 Mostly Sunny 54 12 46 8 77 77 SSE 7 11 29.68 1005 7 11 N/A
7:20 pm 19:20 Mostly Sunny 55 13 46 8 72 72 S 7 11 29.68 1005 30 48 N/A
7:50 pm 19:50 Mostly Sunny 55 13 45 7 67 67 S 10 17 29.68 1005 30 48 N/A
8:20 pm 20:20 Partly Cloudy with Showers 54 12 45 7 72 72 S 8 13 29.68 1005 30 48 N/A
8:50 pm 20:50 Partly Cloudy with Showers Nearby 50 10 46 8 88 88 S 7 11 29.68 1005 30 48 N/A
9:20 pm 21:20 Partly Cloudy with Showers Nearby 50 10 46 8 88 88 S 5 7 29.71 1006 30 48 N/A
9:50 pm 21:50 Partly Cloudy with Showers Nearby 52 11 46 8 82 82 S 6 9 29.71 1006 30 48 N/A

Powered by AerisWeather